{"data":{"norad_id":61932,"intl_designator":"2024-207W","name":"STARLINK-32354","alt_names":[],"object_type":"PAYLOAD","status":"ACTIVE","operator":null,"country":"US","launch_date":"2024-11-11","launch_site_code":"AFETR","launch_vehicle":null,"mission":null,"orbit_class":"UNKNOWN","rcs_meters":null,"size_class":null,"mass_kg":null,"dimensions":null,"purposes":["comms"],"wikipedia_slug":null,"has_3d_model":false,"image_url":null,"decayed_at":null,"tle_current":{"epoch":"2026-09-21T08:38:52.640736Z","epoch_age_seconds":111330,"freshness":"FRESH","line1":"1 61932U 24207W   26264.36033149  .00009784  00000+0  36440-3 0  9992","line2":"2 61932  42.9997 260.4740 0001279 255.3975 104.6735 15.27595908105093","mean_motion":15.27595908,"eccentricity":0.0001279,"inclination_deg":42.9997,"raan_deg":260.474,"arg_perigee_deg":255.3975,"mean_anomaly_deg":104.6735,"bstar":0.0003644,"rev_number":10509,"period_min":94.265767043414,"perigee_km":482.12392256884,"apogee_km":483.87900178747,"semimajor_km":6861.1384621782,"source":"CELESTRAK","updated_at":"2026-09-22T09:00:49.452715Z"}}}